CW2884 Weather Reports


Display with metric or nautical units.
time (UTC)temp
F
wind
direction
speed
MPH
gust
MPH
rain 1hr
in
rain 24hr
in
rain mn
in
humidity
%
barometer
mb
20190318232030 67 0.0 0.0 0.00 0.00 0.00 63 1018.9
20190318231630 67 0.0 0.0 0.00 0.00 0.00 64 1018.8
20190318230527 67 0.0 0.0 0.00 0.00 0.00 63 1018.6
20190318230032 67 0.0 0.0 0.00 0.00 0.00 62 1018.7
20190318225027 68 0.0 0.0 0.00 0.00 0.00 63 1018.4
20190318224516 68 0.0 0.0 0.00 0.00 0.00 62 1018.4
20190318223533 68 0.0 0.0 0.00 0.00 0.00 63 1018.1
20190318223019 68 0.0 0.0 0.00 0.00 0.00 63 1018.0
20190318222034 68 0.0 0.0 0.00 0.00 0.00 62 1018.0
20190318221532 68 0.0 0.0 0.00 0.00 0.00 62 1018.0
20190318220534 69 0.0 0.0 0.00 0.00 0.00 61 1018.0
20190318220024 69 0.0 0.0 0.00 0.00 0.00 62 1017.9
20190318215020 70 0.0 0.0 0.00 0.00 0.00 62 1018.0
20190318214525 70 0.0 0.0 0.00 0.00 0.00 60 1018.1
20190318213025 70 0.0 0.0 0.00 0.00 0.00 60 1017.8
20190318212040 70 0.0 0.0 0.00 0.00 0.00 61 1017.8
20190318211538 70 0.0 0.0 0.00 0.00 0.00 61 1017.7
20190318210524 70 0.0 0.0 0.00 0.00 0.00 60 1017.6
20190318205035 71 0.0 0.0 0.00 0.00 0.00 61 1018.0
20190318204519 71 0.0 0.0 0.00 0.00 0.00 61 1018.0
20190318203538 71 0.0 0.0 0.00 0.00 0.00 63 1017.9
20190318203019 71 0.0 0.0 0.00 0.00 0.00 61 1017.9
20190318202034 71 0.0 0.0 0.00 0.00 0.00 61 1018.2
20190318201533 71 0.0 0.0 0.00 0.00 0.00 60 1018.3
20190318200541 71 0.0 0.0 0.00 0.00 0.00 61 1018.3
20190318200036 71 0.0 0.0 0.00 0.00 0.00 61 1018.0
20190318195031 71 0.0 0.0 0.00 0.00 0.00 62 1018.1
20190318194515 71 0.0 0.0 0.00 0.00 0.00 61 1018.2
20190318193534 71 0.0 0.0 0.00 0.00 0.00 62 1018.3
20190318192027 70 0.0 0.0 0.00 0.00 0.00 62 1018.5
20190318191544 70 0.0 0.0 0.00 0.00 0.00 61 1018.6
20190318190527 70 0.0 0.0 0.00 0.00 0.00 62 1018.6
20190318190031 71 0.0 0.0 0.00 0.00 0.00 61 1018.7
20190318185027 71 0.0 0.0 0.00 0.00 0.00 62 1018.6
20190318184532 71 0.0 0.0 0.00 0.00 0.00 62 1018.7
20190318183035 71 0.0 0.0 0.00 0.00 0.00 62 1019.1
20190318182025 70 0.0 0.0 0.00 0.00 0.00 64 1019.2
20190318181545 70 0.0 0.0 0.00 0.00 0.00 62 1019.2
20190318180526 70 0.0 0.0 0.00 0.00 0.00 64 1019.5
20190318180033 69 0.0 0.0 0.00 0.00 0.00 63 1019.5
20190318175027 69 0.0 0.0 0.00 0.00 0.00 63 1019.8
20190318174516 69 0.0 0.0 0.00 0.00 0.00 62 1019.7
20190318173016 69 0.0 0.0 0.00 0.00 0.00 64 1020.1
20190318172032 68 0.0 0.0 0.00 0.00 0.00 63 1020.3
20190318170524 68 0.0 0.0 0.00 0.00 0.00 65 1020.6
20190318170028 67 0.0 0.0 0.00 0.00 0.00 63 1020.8
20190318165025 68 0.0 0.0 0.00 0.00 0.00 63 1020.8
20190318163518 67 0.0 0.0 0.00 0.00 0.00 64 1020.9
20190318163023 67 0.0 0.0 0.00 0.00 0.00 66 1021.0
20190318162118 67 0.0 0.0 0.00 0.00 0.00 65 1021.0
20190318161532 66 0.0 0.0 0.00 0.00 0.00 65 1021.1
20190318160516 66 0.0 0.0 0.00 0.00 0.00 64 1021.2
20190318160026 66 0.0 0.0 0.00 0.00 0.00 64 1021.1
20190318155024 66 0.0 0.0 0.00 0.00 0.00 65 1020.9
20190318154529 65 0.0 0.0 0.00 0.00 0.00 67 1020.9
20190318153529 65 0.0 0.0 0.00 0.00 0.00 66 1020.9
20190318153012 65 0.0 0.0 0.00 0.00 0.00 67 1020.9
20190318152031 65 0.0 0.0 0.00 0.00 0.00 67 1020.9
20190318151531 65 0.0 0.0 0.00 0.00 0.00 67 1020.9
20190318150531 64 0.0 0.0 0.00 0.00 0.00 68 1021.0
20190318150036 63 0.0 0.0 0.00 0.00 0.00 69 1020.9
20190318145033 63 0.0 0.0 0.00 0.00 0.00 70 1021.1
20190318143518 61 0.0 0.0 0.00 0.00 0.00 74 1020.9
20190318143022 60 0.0 0.0 0.00 0.00 0.00 76 1020.8
20190318142023 60 0.0 0.0 0.00 0.00 0.00 75 1020.8
20190318140531 59 0.0 0.0 0.00 0.00 0.00 76 1020.5
20190318140034 59 0.0 0.0 0.00 0.00 0.00 77 1020.4
20190318135032 59 0.0 0.0 0.00 0.00 0.00 77 1020.3
20190318134518 59 0.0 0.0 0.00 0.00 0.00 77 1020.2
20190318133520 59 0.0 0.0 0.00 0.00 0.00 78 1019.9
20190318133024 58 0.0 0.0 0.00 0.00 0.00 78 1019.9
20190318132040 58 0.0 0.0 0.00 0.00 0.00 78 1019.8
20190318130030 58 0.0 0.0 0.00 0.00 0.00 77 1020.0
20190318125029 58 0.0 0.0 0.00 0.00 0.00 78 1019.6
20190318124513 58 0.0 0.0 0.00 0.00 0.00 78 1019.7
20190318123534 58 0.0 0.0 0.00 0.00 0.00 79 1019.6
20190318123018 58 0.0 0.0 0.00 0.00 0.00 78 1019.7
20190318122015 58 0.0 0.0 0.00 0.00 0.00 79 1019.4
20190318121531 58 0.0 0.0 0.00 0.00 0.00 79 1019.4
20190318120535 58 0.0 0.0 0.00 0.00 0.00 79 1019.3
20190318120039 58 0.0 0.0 0.00 0.00 0.00 79 1019.3
20190318115022 58 0.0 0.0 0.00 0.00 0.00 79 1019.3
20190318114526 58 0.0 0.0 0.00 0.00 0.00 79 1019.1
20190318113523 58 0.0 0.0 0.00 0.00 0.00 78 1018.9
20190318113029 58 0.0 0.0 0.00 0.00 0.00 79 1019.0
20190318112025 58 0.0 0.0 0.00 0.00 0.00 79 1019.0
20190318111544 58 0.0 0.0 0.00 0.00 0.00 80 1019.0
20190318110530 58 0.0 0.0 0.00 0.00 0.00 80 1018.9
20190318110035 58 0.0 0.0 0.00 0.00 0.00 80 1018.9
20190318105038 58 0.0 0.0 0.00 0.00 0.00 79 1018.8
20190318104526 58 0.0 0.0 0.00 0.00 0.00 79 1018.7
20190318103524 58 0.0 0.0 0.00 0.00 0.00 79 1019.0
20190318103029 58 0.0 0.0 0.00 0.00 0.00 79 1018.9